Location: Klein M�hlingen
(51.9472°N, 11.7453°E)
Time: 04:10:14
(UTC+00:00)

Nauka - Pass Details

Date: 30 September 2021
Orbit: 417 x 423 km, 51.6° (Epoch: 26 October)

Event Time Altitude Azimuth Distance (km) Brightness Sun altitude
Rises 19:03:30 0° 283° (WNW) 2,368 ? -20.6°
Reaches altitude 10° 19:05:46 10° 271° (W) 1,502 ? -20.9°
Enters shadow 19:08:34 28° 215° (SW) 819 ? -21.3°
